Weather History for Whidbey Island, WA

Change the Weather History Date:

Saturday, March 1, 2014

  Actual Average Record
Temperature  
Mean Temperature 42 °F -  
Max Temperature 46 °F 47 °F 57 °F (2005)
Min Temperature 37 °F 33 °F 27 °F (2007)
Degree Days  
Heating Degree Days 24    
Moisture  
Dew Point 30 °F    
Average Humidity 65    
Maximum Humidity 79    
Minimum Humidity 47    
Precipitation  
Precipitation 0.01 in - - ()
Sea Level Pressure  
Sea Level Pressure 29.67 in    
Wind  
Wind Speed 4 mph (ENE)    
Max Wind Speed 13 mph    
Max Gust Speed -    
Visibility 10 miles    
Events Rain    
Averages and records for this station are not official NWS values.
T = Trace of Precipitation, MM = Missing Value Source: NWS Daily Summary

Daily Weather History Graph

Daily Weather History Graph

Search for Another Location

Airport:

Trip Planner

Search our weather history database for the weather conditions in past years. The results will help you decide how hot, cold, wet, or windy it might be!

Date:

Astronomy

Mar. 01, 2014 Rise Set
Actual Time 6:51 AM PST 5:54 PM PST
Civil Twilight 6:20 AM PST 6:26 PM PST
Nautical Twilight 5:44 AM PST 7:02 PM PST
Astronomical Twilight 5:08 AM PST 7:38 PM PST
Moon 6:44 AM PST (3/1) 6:56 PM PST (3/1)
Length of Visible Light 12h 05m
Length of Day
11h 03m
New Moon, 0% of the Moon is Illuminated
Mar 1
New Moon
Mar 8
First Quarter
Mar 16
Full
Mar 23
Last Quarter
Mar 30
New

Hourly Weather History & Observations

Time (PST) Temp. Windchill Dew Point Humidity Pressure Visibility Wind Dir Wind Speed Gust Speed Precip Events Conditions
12:56 AM 43.0 °F - 27.0 °F 53% 29.59 in 10.0 mi Calm Calm - N/A   Overcast
1:56 AM 43.0 °F - 28.0 °F 56% 29.60 in 10.0 mi Calm Calm - N/A   Overcast
2:56 AM 41.0 °F - 26.1 °F 55% 29.60 in 10.0 mi Calm Calm - N/A   Mostly Cloudy
3:56 AM 41.0 °F 39.0 °F 25.0 °F 53% 29.60 in 10.0 mi NNE 3.5 mph - N/A   Mostly Cloudy
4:56 AM 39.9 °F - 28.0 °F 63% 29.62 in 10.0 mi Calm Calm - N/A   Overcast
5:56 AM 39.9 °F - 28.0 °F 63% 29.63 in 10.0 mi Calm Calm - N/A   Mostly Cloudy
6:56 AM 39.0 °F - 28.0 °F 65% 29.64 in 10.0 mi Calm Calm - N/A   Mostly Cloudy
7:56 AM 39.9 °F - 28.9 °F 65% 29.67 in 10.0 mi Calm Calm - N/A   Mostly Cloudy
8:56 AM 42.1 °F 40.2 °F 26.1 °F 53% 29.68 in 10.0 mi East 3.5 mph - N/A   Overcast
9:56 AM 44.1 °F - 25.0 °F 47% 29.70 in 10.0 mi Calm Calm - N/A   Overcast
10:56 AM 45.0 °F 41.8 °F 26.1 °F 48% 29.70 in 10.0 mi East 5.8 mph - N/A   Overcast
11:56 AM 46.0 °F 42.5 °F 30.0 °F 54% 29.70 in 10.0 mi East 6.9 mph - N/A   Overcast
12:18 PM 45.0 °F 41.2 °F 33.1 °F 63% 29.68 in 10.0 mi East 6.9 mph - 0.01 in Rain Light Rain
12:46 PM 46.0 °F 42.5 °F 34.0 °F 63% 29.68 in 10.0 mi East 6.9 mph - 0.01 in   Overcast
12:56 PM 46.9 °F - 33.1 °F 59% 29.69 in 10.0 mi SE 8.1 mph - 0.01 in   Overcast
1:22 PM 46.9 °F - 34.0 °F 61% 29.67 in 10.0 mi East 11.5 mph - 0.00 in Rain Light Rain
1:48 PM 46.0 °F 41.0 °F 34.0 °F 63% 29.68 in 10.0 mi East 10.4 mph - 0.00 in   Overcast
1:56 PM 46.0 °F 41.4 °F 34.0 °F 63% 29.69 in 10.0 mi East 9.2 mph - 0.00 in   Overcast
2:29 PM 43.0 °F 36.8 °F 30.9 °F 62% 29.68 in 10.0 mi NE 11.5 mph - 0.00 in Rain Light Rain
2:56 PM 42.1 °F 37.7 °F 30.9 °F 65% 29.70 in 10.0 mi NE 6.9 mph - 0.00 in Rain Light Rain
3:56 PM 42.1 °F 37.1 °F 32.0 °F 67% 29.69 in 10.0 mi East 8.1 mph - 0.00 in Rain Light Rain
4:56 PM 39.0 °F 34.0 °F 30.9 °F 73% 29.69 in 10.0 mi NE 6.9 mph - 0.00 in Rain Light Rain
5:25 PM 39.0 °F 32.8 °F 30.9 °F 73% 29.67 in 10.0 mi NE 9.2 mph - 0.00 in Rain Light Rain
5:56 PM 37.9 °F 32.1 °F 32.0 °F 79% 29.68 in 10.0 mi NE 8.1 mph - 0.00 in   Overcast
6:56 PM 37.9 °F 31.5 °F 32.0 °F 79% 29.69 in 10.0 mi NE 9.2 mph - N/A   Overcast
7:33 PM 37.9 °F 32.1 °F 32.0 °F 79% 29.67 in 10.0 mi NE 8.1 mph - N/A   Overcast
7:56 PM 37.9 °F 33.5 °F 32.0 °F 79% 29.69 in 10.0 mi NE 5.8 mph - N/A   Overcast
8:56 PM 39.0 °F 34.8 °F 32.0 °F 76% 29.69 in 10.0 mi ENE 5.8 mph - N/A   Overcast
9:56 PM 39.0 °F 33.4 °F 32.0 °F 76% 29.70 in 10.0 mi ESE 8.1 mph - N/A   Overcast
10:56 PM 39.9 °F 32.5 °F 33.1 °F 77% 29.69 in 10.0 mi East 12.7 mph - N/A   Overcast
11:56 PM 39.9 °F 32.9 °F 34.0 °F 79% 29.70 in 10.0 mi East 11.5 mph - N/A   Overcast